STARLINK-35957

Last updated on Mon Dec 15 2025 00:02:12 GMT+0000 (Coordinated Universal Time)

1 66823U 25280C 25348.25003472 -.01719850 00000+0 -13248-1 0 9998 2 66823 69.9949 194.5416 0003684 272.8262 29.3643 15.74658959 3147
UTC large
Height (km)
Speed (km/s)
/
Latitude / Longitude
Inclination (degrees)
Orbital Period (minutes)
Azimuth
Elevation
Range (km)
Doppler Factor

Next 0 passes for location: London (51.5072 / 0.1276)

Sorry there are no passes over London.